User: anonymous   Login
Location: Unspecified
(0.0000°N, 0.0000°E)
Time: 21:42:16
(UTC+00:00)
Language:

COSMOS 2409 - Orbit

View from above orbital plane
View from above orbital plane
View from above satellite
View from above satellite

Ground track
Ground track

The orbit data is extracted from the following two-line orbital elements,

1 28380U 04028A   17083.57196666 +.00000040 +00000-0 +25253-4 0  9995
2 28380 082.9606 050.9538 0038617 322.1930 037.6518 13.76037814636363
Epoch (UTC): 24 March 2017 13:43:37
Eccentricity: 0.0038617
inclination: 82.9606°
perigee height: 949 km
apogee height: 1006 km
right ascension of ascending node: 50.9538°
argument of perigee: 322.1930°
revolutions per day: 13.76037814
mean anomaly at epoch: 37.6518°
orbit number at epoch: 63636

The dashed part of the orbit path shows where the satellite is in the earth's shadow,  

DLR